Date Time,Air Temp,Sky Temp,Clarity,Light Level,Rain Sensor,Readings
2012-03-14 00:01:03,14.2,3.1,11.2,0.0,2.3,111
2012-03-14 00:06:03,14.1,3.5,10.7,0.0,2.3,112
2012-03-14 00:11:03,14.1,3.1,11.0,0.0,2.4,111
2012-03-14 00:16:03,14.0,3.2,10.8,0.0,2.4,111
2012-03-14 00:21:03,14.0,3.6,10.4,0.0,2.7,111
2012-03-14 00:26:03,14.1,4.0,10.2,0.0,2.7,112
2012-03-14 00:31:03,14.2,3.9,10.4,0.0,2.5,111
2012-03-14 00:36:03,14.3,3.9,10.4,0.0,2.3,112
2012-03-14 00:41:03,14.3,4.0,10.3,0.0,2.3,112
2012-03-14 00:46:03,14.4,4.0,10.3,0.0,2.3,111
2012-03-14 00:51:03,14.4,4.0,10.5,0.0,2.3,112
2012-03-14 00:56:03,14.4,3.3,11.0,0.0,2.3,111
2012-03-14 01:01:03,14.3,3.9,10.4,0.0,2.3,112
2012-03-14 01:06:03,14.4,3.7,10.6,0.0,2.3,111
2012-03-14 01:11:03,14.2,3.2,11.0,0.0,2.3,111
2012-03-14 01:16:03,14.1,3.5,10.6,0.0,2.4,112
2012-03-14 01:21:03,14.1,3.8,10.4,0.0,2.4,111
2012-03-14 01:26:03,14.3,4.2,10.1,0.0,2.3,112
2012-03-14 01:31:03,14.4,3.8,10.5,0.0,2.3,111
2012-03-14 01:36:04,14.4,3.7,10.7,0.0,2.3,112
2012-03-14 01:41:04,14.4,3.7,10.7,0.0,2.3,111
2012-03-14 01:46:04,14.3,3.4,10.9,0.0,2.3,112
2012-03-14 01:51:04,14.2,3.3,10.9,0.0,2.3,111
2012-03-14 01:56:04,14.2,3.6,10.6,0.0,2.4,112
2012-03-14 02:01:04,14.1,2.7,11.4,0.0,2.4,111
2012-03-14 02:06:04,13.9,2.7,11.2,0.0,2.4,111
2012-03-14 02:11:04,13.9,3.2,10.7,0.0,2.5,112
2012-03-14 02:16:04,13.9,3.1,10.7,0.0,2.4,110
2012-03-14 02:21:04,13.9,3.1,10.9,0.0,2.4,112
2012-03-14 02:26:04,13.8,2.8,11.0,0.0,2.5,111
2012-03-14 02:31:04,13.7,2.3,11.4,0.0,2.5,111
2012-03-14 02:36:04,13.5,2.5,11.0,0.0,2.4,111
2012-03-14 02:41:04,13.5,3.2,10.4,0.0,2.4,112
2012-03-14 02:46:04,14.2,2.5,11.7,0.0,2.5,111
2012-03-14 02:51:04,13.5,2.6,10.9,0.0,2.4,111
2012-03-14 02:56:04,13.6,3.2,10.4,0.0,2.4,111
2012-03-14 03:01:04,13.7,3.1,10.6,0.0,2.5,111
2012-03-14 03:06:04,13.8,3.1,10.7,0.0,2.5,111
2012-03-14 03:11:04,13.8,2.4,11.4,0.0,2.5,111
2012-03-14 03:16:04,13.6,2.4,11.2,0.0,2.5,111
2012-03-14 03:21:04,13.6,2.6,11.0,0.0,2.4,111
2012-03-14 03:26:04,13.5,2.6,10.9,0.0,2.4,111
2012-03-14 03:31:04,13.5,3.0,10.5,0.0,2.4,112
2012-03-14 03:36:04,13.6,2.6,11.0,0.0,2.4,111
2012-03-14 03:41:04,13.5,2.8,10.7,0.0,2.4,111
2012-03-14 03:46:04,13.6,2.9,10.7,0.0,2.4,111
2012-03-14 03:51:04,13.7,2.7,11.0,0.0,2.5,112
2012-03-14 03:56:04,13.7,2.3,11.4,0.0,2.5,111
2012-03-14 04:01:04,13.4,1.7,11.7,0.0,2.4,111
2012-03-14 04:06:04,13.2,2.4,10.8,0.0,2.2,111
2012-03-14 04:11:04,13.2,2.8,10.4,0.0,2.2,111
2012-03-14 04:16:04,13.3,2.8,10.6,0.0,2.2,112
2012-03-14 04:21:04,13.5,2.9,10.6,0.0,2.3,111
2012-03-14 04:26:04,13.6,2.8,10.7,0.0,2.4,111
2012-03-14 04:31:04,13.5,1.9,11.6,0.0,2.4,111
2012-03-14 04:36:04,13.4,2.9,10.4,0.0,2.2,112
2012-03-14 04:41:04,13.5,3.3,10.2,0.0,2.3,111
2012-03-14 04:46:04,13.6,2.9,10.8,0.0,2.3,111
2012-03-14 04:51:04,13.7,2.8,10.8,0.0,2.3,111
2012-03-14 04:56:04,13.6,2.1,11.5,0.0,2.3,111
2012-03-14 05:01:04,13.3,1.8,11.5,0.0,2.2,112
2012-03-14 05:06:04,13.8,2.6,11.3,0.0,2.2,111
2012-03-14 05:11:04,13.2,1.8,11.3,0.0,2.2,111
2012-03-14 05:16:04,13.0,2.2,10.9,0.0,1.9,111
2012-03-14 05:21:04,13.0,2.1,11.0,0.0,1.9,111
2012-03-14 05:26:04,13.0,2.0,11.0,0.0,1.9,112
2012-03-14 05:31:04,12.9,1.7,11.2,0.1,1.8,110
2012-03-14 05:36:04,12.9,1.9,11.0,0.4,1.8,111
2012-03-14 05:41:04,13.1,2.7,10.3,0.8,1.9,111
2012-03-14 05:46:04,13.3,2.4,10.9,1.6,2.2,111
2012-03-14 05:51:04,13.4,2.5,10.9,3.3,2.2,111
2012-03-14 05:56:04,13.5,2.6,10.9,6.2,2.3,112
2012-03-14 06:01:04,13.5,2.4,11.1,10.6,2.3,111
2012-03-14 06:06:04,13.5,2.3,11.3,15.9,2.3,111
2012-03-14 06:11:04,13.5,2.8,10.7,20.8,2.3,111
2012-03-14 06:16:04,13.6,2.4,11.1,24.2,2.3,111
2012-03-14 06:21:04,13.5,2.6,10.9,26.6,2.3,112
2012-03-14 06:26:04,13.5,2.7,10.9,28.2,2.3,111
2012-03-14 06:31:04,13.6,2.7,10.9,29.1,2.4,111
2012-03-14 06:36:04,13.7,3.0,10.7,29.8,2.4,111
2012-03-14 06:41:04,13.7,2.4,11.3,30.3,2.4,111
2012-03-14 06:46:04,13.7,2.9,10.8,30.6,2.4,112
2012-03-14 06:51:04,13.7,2.7,11.1,30.9,2.4,111
2012-03-14 06:56:04,13.7,2.5,11.2,31.2,2.4,111
2012-03-14 07:01:04,13.7,3.0,10.7,31.3,2.5,111
2012-03-14 07:06:04,13.7,2.1,11.6,31.5,2.5,111
2012-03-14 07:11:04,13.6,2.2,11.4,31.6,2.4,111
2012-03-14 07:16:04,13.5,2.1,11.4,31.7,2.3,111
2012-03-14 07:21:04,13.5,2.4,11.1,31.8,2.4,111
2012-03-14 07:26:04,13.6,2.5,11.1,31.9,2.4,112
2012-03-14 07:31:04,13.7,2.5,11.2,32.0,2.4,110
2012-03-14 07:36:04,13.8,2.5,11.3,32.0,2.5,111
2012-03-14 07:41:04,13.8,2.6,11.2,32.0,2.5,112
2012-03-14 07:46:04,13.9,2.4,11.5,32.1,2.5,111
2012-03-14 07:51:04,13.9,2.5,11.4,32.1,2.5,112
2012-03-14 07:56:04,13.9,2.8,11.1,32.2,2.6,111
2012-03-14 08:01:04,14.0,2.3,11.7,32.2,2.5,111
2012-03-14 08:06:04,14.0,2.2,11.8,32.2,2.5,110
2012-03-14 08:11:04,14.0,2.3,11.7,32.3,2.5,112
2012-03-14 08:16:04,14.0,2.6,11.4,32.3,2.5,111
2012-03-14 08:21:04,14.0,1.8,12.2,32.3,2.4,111
2012-03-14 08:26:04,13.8,2.0,11.8,32.2,2.5,111
2012-03-14 08:31:04,13.7,1.8,11.9,32.2,2.5,110
2012-03-14 08:36:04,13.6,1.5,12.1,32.3,2.4,112
2012-03-14 08:41:04,13.6,2.4,11.2,32.3,2.4,111
2012-03-14 08:46:04,13.8,2.0,11.8,32.3,2.5,111
2012-03-14 08:51:04,13.8,2.2,11.6,32.3,2.4,111
2012-03-14 08:56:04,13.8,2.7,11.2,32.3,2.5,111
2012-03-14 09:01:04,14.0,2.9,11.1,32.4,2.5,112
2012-03-14 09:06:04,14.3,3.1,11.2,32.4,2.4,111
2012-03-14 09:11:04,14.5,3.0,11.5,32.4,2.3,111
2012-03-14 09:16:04,14.7,3.0,11.7,32.4,2.3,111
2012-03-14 09:21:04,14.8,3.1,11.6,32.4,2.3,111
2012-03-14 09:26:04,14.8,3.3,11.5,32.4,2.3,111
2012-03-14 09:31:04,14.9,3.4,11.5,32.4,2.3,111
2012-03-14 09:36:04,15.0,3.4,11.6,32.4,2.3,112
2012-03-14 09:41:04,15.0,3.0,12.0,32.4,2.3,111
2012-03-14 09:46:04,15.0,2.9,12.1,32.4,2.3,112
2012-03-14 09:51:04,15.0,3.1,12.0,32.4,2.3,111
2012-03-14 09:56:04,15.1,3.3,11.8,32.4,2.3,111
2012-03-14 10:01:04,15.3,3.3,12.0,32.4,2.3,112
2012-03-14 10:06:04,15.4,3.2,12.1,32.5,2.3,111
2012-03-14 10:11:04,15.2,3.8,11.4,32.5,2.3,112
2012-03-14 10:16:04,15.7,3.7,12.0,32.5,2.3,111
2012-03-14 10:21:04,15.9,3.1,12.8,32.5,2.3,112
2012-03-14 10:26:04,15.8,3.6,12.2,32.5,2.3,111
2012-03-14 10:31:04,15.9,3.7,12.2,32.5,2.3,111
2012-03-14 10:36:04,16.0,4.0,12.0,32.5,2.3,112
2012-03-14 10:41:04,16.2,4.1,12.1,32.5,2.3,111
2012-03-14 10:46:04,16.3,4.1,12.2,32.5,2.3,112
2012-03-14 10:51:04,16.5,4.5,12.0,32.5,2.4,111
2012-03-14 10:56:04,16.7,4.3,12.4,32.5,2.3,112
2012-03-14 11:01:04,16.7,4.1,12.6,32.5,2.3,112
2012-03-14 11:06:04,16.8,4.4,12.4,32.5,2.1,111
2012-03-14 11:11:04,16.9,4.6,12.3,32.5,2.1,112
2012-03-14 11:16:04,17.1,4.5,12.5,32.5,2.3,112
2012-03-14 11:21:04,17.2,4.6,12.7,32.5,2.3,111
2012-03-14 11:26:04,17.4,4.5,12.9,32.5,2.5,112
2012-03-14 11:31:04,17.6,5.0,12.6,32.5,2.4,112
2012-03-14 11:36:04,17.8,4.7,13.1,32.5,2.3,111
2012-03-14 11:41:04,17.9,4.9,12.9,32.5,2.3,112
2012-03-14 11:46:04,18.1,5.6,12.4,32.5,2.3,112
2012-03-14 11:51:04,18.4,5.0,13.4,32.5,2.3,111
2012-03-14 11:56:04,18.5,5.0,13.6,32.6,2.3,111
2012-03-14 12:01:04,18.7,4.7,14.0,32.6,2.2,112
2012-03-14 12:06:04,18.9,4.0,15.0,32.6,1.8,111
2012-03-14 12:11:04,19.1,3.9,15.2,32.6,1.8,111
2012-03-14 12:16:04,19.3,3.9,15.4,32.6,1.8,111
2012-03-14 12:21:04,21.6,-1.7,23.3,32.6,2.3,112
2012-03-14 12:26:04,24.6,-1.2,25.8,32.6,2.3,112
2012-03-14 12:31:04,25.8,-0.4,26.3,32.6,2.3,111
2012-03-14 12:36:04,27.5,0.4,27.1,32.6,2.3,112
2012-03-14 12:41:04,28.3,3.4,24.9,32.6,2.4,111
2012-03-14 12:46:04,29.8,1.4,28.4,32.6,2.4,111
2012-03-14 12:51:04,29.6,-3.8,33.4,32.6,2.3,112
2012-03-14 12:56:04,29.4,-1.8,31.1,32.6,2.4,112
2012-03-14 13:01:04,30.3,-1.2,31.5,32.6,2.4,111
2012-03-14 13:06:04,30.8,0.2,30.6,32.6,2.4,112
2012-03-14 13:11:04,31.0,0.0,31.0,32.6,2.4,111
2012-03-14 13:16:04,31.5,-2.1,33.6,32.6,2.4,112
2012-03-14 13:21:04,31.6,-2.5,34.2,32.6,2.4,112
2012-03-14 13:26:04,31.6,-3.5,35.1,32.6,2.4,112
2012-03-14 13:31:04,30.9,-4.0,34.9,32.6,2.3,111
2012-03-14 13:36:04,30.7,-2.0,32.7,32.6,2.4,112
2012-03-14 13:41:04,31.2,-2.8,33.9,32.6,2.4,112
2012-03-14 13:46:04,30.8,-4.2,34.9,32.6,2.3,111
2012-03-14 13:51:04,30.6,-3.4,34.0,32.6,2.4,112
2012-03-14 13:56:04,30.8,-3.5,34.3,32.6,2.4,112
2012-03-14 14:01:04,31.2,-2.0,33.1,32.6,2.4,111
2012-03-14 14:06:04,32.0,-1.7,33.7,32.6,2.4,112
2012-03-14 14:11:04,32.3,-2.3,34.6,32.6,2.4,112
2012-03-14 14:16:04,32.6,-1.5,34.2,32.6,2.4,111
2012-03-14 14:21:04,33.1,-1.0,34.1,32.6,2.4,112
2012-03-14 14:26:04,33.6,-1.1,34.7,32.6,2.2,112
2012-03-14 14:31:04,34.2,-1.0,35.2,32.6,1.5,112
2012-03-14 14:36:04,34.4,-2.1,36.5,32.6,1.4,111
2012-03-14 14:41:04,34.1,-1.4,35.5,32.6,1.6,112
2012-03-14 14:46:04,33.4,-2.3,35.8,32.6,1.5,112
2012-03-14 14:51:04,33.5,-2.1,35.6,32.6,1.4,111
2012-03-14 14:56:04,33.8,-2.0,35.7,32.6,1.6,111
2012-03-14 15:01:04,33.1,-3.3,36.5,32.6,1.6,112
2012-03-14 15:06:04,32.3,-3.6,35.9,32.6,2.3,112
2012-03-14 15:11:04,31.8,-3.9,35.6,32.6,2.3,112
2012-03-14 15:16:04,31.5,-3.0,34.4,32.6,2.3,112
2012-03-14 15:21:04,31.2,-4.2,35.4,32.6,2.3,112
2012-03-14 15:26:04,31.5,-2.8,34.2,32.6,2.4,111
2012-03-14 15:31:04,31.7,-3.9,35.6,32.6,2.3,112
2012-03-14 15:36:04,31.5,-4.7,36.2,32.6,2.3,111
2012-03-14 15:41:04,30.7,-5.8,36.5,32.6,2.3,112
2012-03-14 15:46:04,30.1,-4.8,35.0,32.6,2.4,112
2012-03-14 15:51:04,30.3,-5.4,35.7,32.6,2.3,112
2012-03-14 15:56:04,29.6,-7.1,36.7,32.6,2.3,111
2012-03-14 16:01:04,28.7,-6.5,35.2,32.6,2.3,111
2012-03-14 16:06:04,28.5,-7.1,35.7,32.6,2.3,112
2012-03-14 16:11:04,27.9,-7.8,35.6,32.6,2.3,111
2012-03-14 16:16:04,27.1,-8.4,35.5,32.6,2.3,112
2012-03-14 16:21:04,26.5,-8.5,35.1,32.6,2.3,112
2012-03-14 16:26:04,26.0,-9.0,35.0,32.6,2.4,111
2012-03-14 16:31:04,25.7,-8.9,34.6,32.6,2.3,112
2012-03-14 16:36:04,25.6,-8.8,34.4,32.6,2.2,112
2012-03-14 16:41:05,25.4,-9.7,35.1,32.6,2.2,112
2012-03-14 16:46:05,25.0,-9.9,34.9,32.6,2.3,112
2012-03-14 16:51:05,24.8,-9.8,34.6,32.6,2.3,112
2012-03-14 16:56:05,24.6,-10.3,34.9,32.6,2.3,112
2012-03-14 17:01:05,24.5,-10.3,34.8,32.5,2.3,111
2012-03-14 17:06:05,24.8,-10.0,34.8,32.5,2.3,112
2012-03-14 17:11:05,25.0,-9.9,34.9,32.5,2.3,111
2012-03-14 17:16:05,24.8,-11.2,36.0,32.5,2.3,112
2012-03-14 17:21:05,24.2,-11.7,35.9,32.5,2.3,111
2012-03-14 17:26:05,23.7,-11.8,35.5,32.4,2.3,111
2012-03-14 17:31:05,23.2,-12.1,35.3,32.4,2.4,112
2012-03-14 17:36:05,22.9,-12.6,35.5,32.3,2.3,111
2012-03-14 17:41:05,22.5,-13.1,35.5,32.3,2.3,111
2012-03-14 17:46:05,21.9,-13.7,35.5,32.2,2.3,112
2012-03-14 17:51:05,21.3,-13.9,35.2,32.0,2.4,111
2012-03-14 17:56:05,21.0,-13.8,34.8,31.9,2.5,112
2012-03-14 18:01:05,21.1,-13.6,34.6,31.7,2.3,112
2012-03-14 18:06:05,20.9,-13.8,34.7,31.4,2.2,111
2012-03-14 18:11:05,20.7,-13.9,34.6,30.9,2.0,112
2012-03-14 18:16:05,20.3,-14.1,34.3,30.2,2.2,111
2012-03-14 18:21:05,19.6,-14.2,33.8,28.8,2.3,111
2012-03-14 18:26:05,19.1,-14.4,33.5,26.2,2.3,112
2012-03-14 18:31:05,18.8,-14.5,33.3,21.9,2.3,111
2012-03-14 18:36:05,18.7,-14.9,33.6,15.8,2.5,112
2012-03-14 18:41:05,18.7,-14.7,33.4,9.7,2.7,111
2012-03-14 18:46:05,18.5,-14.8,33.3,5.3,2.4,112
2012-03-14 18:51:05,18.3,-14.9,33.2,2.7,2.3,112
2012-03-14 18:56:05,18.6,-15.1,33.7,1.3,2.5,111
2012-03-14 19:01:05,18.7,-15.7,34.4,0.6,2.5,112
2012-03-14 19:06:05,18.7,-15.2,33.9,0.3,2.4,112
2012-03-14 19:11:05,18.7,-15.1,33.8,0.1,2.3,111
2012-03-14 19:16:05,18.7,-15.1,33.8,0.0,2.3,111
2012-03-14 19:21:05,18.6,-14.9,33.6,0.0,2.3,111
2012-03-14 19:26:05,18.5,-15.1,33.6,0.0,2.3,112
2012-03-14 19:31:05,18.5,-15.6,34.1,0.0,2.3,112
2012-03-14 19:36:05,18.3,-15.4,33.7,0.0,2.2,111
2012-03-14 19:41:05,18.3,-15.5,33.8,0.0,2.2,112
2012-03-14 19:46:05,18.3,-15.7,34.0,0.0,2.2,111
2012-03-14 19:51:05,18.2,-16.0,34.3,0.0,2.3,112
2012-03-14 19:56:05,17.8,-16.0,33.8,0.0,2.3,111
2012-03-14 20:01:05,18.1,-15.8,33.9,0.0,2.3,112
2012-03-14 20:06:05,18.1,-15.8,33.9,0.0,2.3,112
2012-03-14 20:11:05,18.1,-15.7,33.8,0.0,2.3,111
2012-03-14 20:16:05,18.1,-15.8,33.9,0.0,2.3,112
2012-03-14 20:21:05,18.2,-15.3,33.5,0.0,2.3,111
2012-03-14 20:26:05,18.3,-15.4,33.7,0.0,2.2,112
2012-03-14 20:31:05,18.3,-15.6,33.9,0.0,2.2,111
2012-03-14 20:36:05,18.3,-14.9,33.2,0.0,2.2,111
2012-03-14 20:41:05,18.3,-15.4,33.7,0.0,2.2,112
2012-03-14 20:46:05,18.0,-15.5,33.4,0.0,2.3,112
2012-03-14 20:51:05,18.3,-15.3,33.6,0.0,2.3,111
2012-03-14 20:56:05,18.3,-15.2,33.5,0.0,2.3,112
2012-03-14 21:01:05,18.3,-15.0,33.3,0.0,2.3,111
2012-03-14 21:06:05,18.3,-14.8,33.2,0.0,2.3,112
2012-03-14 21:11:05,18.3,-15.4,33.7,0.0,2.3,111
2012-03-14 21:16:05,18.2,-15.3,33.5,0.0,2.3,112
2012-03-14 21:21:05,18.1,-15.4,33.5,0.0,2.4,111
2012-03-14 21:26:05,17.6,-14.7,32.3,0.0,2.3,112
2012-03-14 21:31:05,17.4,-14.9,32.2,0.0,2.3,111
2012-03-14 21:36:05,17.4,-14.7,32.0,0.0,2.3,112
2012-03-14 21:41:05,17.6,-14.8,32.4,0.0,2.4,111
2012-03-14 21:46:05,17.8,-15.0,32.9,0.0,2.4,112
2012-03-14 21:51:05,17.9,-15.6,33.5,0.0,2.5,111
2012-03-14 21:56:05,17.8,-15.3,33.1,0.0,2.4,112
2012-03-14 22:01:05,17.9,-15.8,33.7,0.0,2.4,112
2012-03-14 22:06:05,17.9,-15.7,33.5,0.0,2.3,111
2012-03-14 22:11:05,17.9,-15.6,33.5,0.0,2.3,112
2012-03-14 22:16:05,18.0,-15.3,33.3,0.0,2.4,111
2012-03-14 22:21:05,18.1,-15.4,33.5,0.0,2.5,112
2012-03-14 22:26:05,18.1,-15.3,33.5,0.0,2.4,111
2012-03-14 22:31:05,18.2,-15.0,33.2,0.0,2.4,112
2012-03-14 22:36:05,18.2,-14.9,33.1,0.0,2.5,111
2012-03-14 22:41:05,18.2,-14.6,32.8,0.0,2.5,112
2012-03-14 22:46:05,18.3,-14.8,33.0,0.0,2.4,111
2012-03-14 22:51:05,18.3,-14.6,32.8,0.0,2.3,111
2012-03-14 22:56:05,18.3,-14.7,33.0,0.0,2.3,112
2012-03-14 23:01:05,18.3,-15.2,33.5,0.0,2.4,111
2012-03-14 23:06:05,18.2,-15.2,33.4,0.0,2.5,112
2012-03-14 23:11:05,18.1,-15.2,33.3,0.0,2.5,111
2012-03-14 23:16:05,18.2,-15.7,33.8,0.0,2.4,112
2012-03-14 23:21:05,18.2,-15.6,33.7,0.0,2.4,111
2012-03-14 23:26:05,18.3,-15.8,34.1,0.0,2.4,112
2012-03-14 23:31:05,18.2,-15.5,33.6,0.0,2.3,112
2012-03-14 23:36:05,18.0,-15.5,33.6,0.0,2.3,111
2012-03-14 23:41:05,18.0,-15.6,33.6,0.0,2.3,112
2012-03-14 23:46:05,18.0,-15.4,33.4,0.0,2.3,112
2012-03-14 23:51:05,18.0,-15.2,33.2,0.0,2.3,111
2012-03-14 23:56:05,18.0,-15.5,33.5,0.0,2.3,111
